Location: Unspecified
(0.0000°N, 0.0000°E)
Time: 20:56:00
(UTC+00:00)

Oscar 14 - Pass Details

Date: 19 June 2023
Orbit: 776 x 790 km, 98.9° (Epoch: 30 September)

Event Time Altitude Azimuth Distance (km) Brightness Sun altitude
Rises 19:09:32 0° 206° (SSW) 3,273 ? -15.6°
Reaches altitude 10° 19:13:47 10° 240° (WSW) 2,344 ? -16.6°
Maximum altitude 19:15:12 11° 257° (WSW) 2,269 ? -16.9°
Drops below altitude 10° 19:16:37 10° 273° (W) 2,344 ? -17.2°
Sets 19:20:53 0° 307° (NW) 3,271 ? -18.2°
